PEGASUS DEB

Satellite information

Favourite Embed

Satellite Type and Status

DEBRISIN ORBIT

Key statistics

Satellite PEGASUS DEB at a glance.

Uptime

11532

Days in orbit

Revolutions

≈ 14.7

Per day

Orbit

LEO

Low Earth Orbit

Inclination

82.0

Latest

Satellite identification and parameters

Extended collection of information and parameters for PEGASUS DEB.

Object identification

Identified? True

Debris? True

Object name: PEGASUS DEB

International designator: 1994-029ADZ

Object number (NORAD): 25445

Object ID (CCSDS): 25445

Country: UNITED STATES OF AMERICA (US)

Current information (Y/N): Y

RCS size: SMALL

Orbital parameters

Period: 97.871 minutes

Inclination: 81.986 deg

SMA: 7034.967 km

Apoapsis: 749.152 km

Periapsis: 564.512 km

RAAN: 290.8089 deg

Eccentricy: 0.01312305

Argument of periapsis: 171.2029 deg

Mean anomaly: 201.6191 deg

Mean motion: 14.71328605 rev/day

Mean motion (dot): 0.00003314 rev/day2

B* drag term: 0.00046529009 1/REarth

Two-line elements (TLE)

Creation date: Dec. 13, 2025, 5:47 p.m.

Reference frame: TEME

Reference center: EARTH

Epoch: Dec. 13, 2025, 2:39 a.m. UTC

TLE line 0: 0 PEGASUS DEB

TLE line 1: 1 25445U 94029ADZ 25347.11042685 .00003314 00000-0 46529-3 0 9992

TLE line 2: 2 25445 81.9860 290.8089 0131231 171.2029 201.6191 14.71328605509116

Live tracking on map

Real-time ground track for satellite PEGASUS DEB.

In-orbit conjunctions

A list of the most updated potential collisions computed for object PEGASUS DEB.

Target Orbit TCA Probability of collision Miss distance Type
THORAD AGENA D DEB LEO 2025-03-29 07:42:17 0.0003219032 52.0 (m) DEBRIS
THOR BURNER 2 R/B SSO 2024-09-07 15:13:37 0.0001013653 535.0 (m) ROCKET BODY

Associated space launch

PEGASUS DEB was lifted into orbit during the mission ‘Pegasus HAPS | Space Test Experiments Platform 2 (STEP-2)’, on board a Pegasus HAPS space rocket.

The launch took place on May 19, 1994, 5:03 p.m. from Edwards Air Force Base.

For more information about the launch, click the button.

Launch to space Pegasus HAPS | Space Test Experiments Platform 2 (STEP-2)
Pegasus HAPS | Space Test Experiments Platform 2 (STEP-2)

Agency: N/A

Status: Launch Successful

Launch date: May 19, 1994, 5:03 p.m. UTC

Rocket: Pegasus HAPS

Launch pad: Edwards Air Force Base

Location: Air launch to orbit

...

Latest news about this satellite

There are no fresh news available about this satellite. Check back as we update our databases every day.


Newsletter sign-up

Weekly statistics, charts and insights to help you stay on top of the space industry.